Time,TemperatureF,DewpointF,PressureIn,WindDirection,WindDirectionDegrees,WindSpeedMPH,WindSpeedGustMPH,Humidity,HourlyPrecipIn,Conditions,Clouds,dailyrainin,SoftwareType,DateUTC
2013-02-15 00:53:00,55.0,-99.9,30.15,NW,315,0.0,1.0,-999,-99.99,,,-99.99,,2013-02-15 08:53:00,
2013-02-15 01:02:00,55.0,-99.9,30.15,West,266,1.0,2.0,-999,-99.99,,,-99.99,,2013-02-15 09:02:00,
2013-02-15 01:12:00,55.0,-99.9,30.15,West,266,1.0,2.0,-999,-99.99,,,-99.99,,2013-02-15 09:12:00,
2013-02-15 01:22:00,54.0,-99.9,30.16,SW,226,1.0,1.0,-999,-99.99,,,-99.99,,2013-02-15 09:22:00,
2013-02-15 01:32:00,54.0,-99.9,30.15,WNW,299,1.0,3.0,-999,-99.99,,,-99.99,,2013-02-15 09:32:00,
2013-02-15 01:42:00,54.0,-99.9,30.15,WNW,299,1.0,3.0,-999,-99.99,,,-99.99,,2013-02-15 09:42:00,
2013-02-15 01:52:00,54.0,-99.9,30.14,NNW,329,2.0,3.0,-999,-99.99,,,-99.99,,2013-02-15 09:52:00,
2013-02-15 02:02:00,54.0,-99.9,30.14,North,353,1.0,3.0,-999,-99.99,,,-99.99,,2013-02-15 10:02:00,
2013-02-15 02:11:00,54.0,-99.9,30.14,North,353,1.0,3.0,-999,-99.99,,,-99.99,,2013-02-15 10:11:00,
2013-02-15 02:22:00,53.0,-99.9,30.13,WSW,256,2.0,3.0,-999,-99.99,,,-99.99,,2013-02-15 10:22:00,
2013-02-15 02:30:00,53.0,-99.9,30.12,NNW,328,2.0,3.0,-999,-99.99,,,-99.99,,2013-02-15 10:30:00,
2013-02-15 02:32:00,53.0,-99.9,30.13,NE,41,1.0,2.0,-999,-99.99,,,-99.99,,2013-02-15 10:32:00,
2013-02-15 02:42:00,53.0,-99.9,30.13,NE,41,1.0,2.0,-999,-99.99,,,-99.99,,2013-02-15 10:42:00,
2013-02-15 02:52:00,53.0,-99.9,30.12,NNW,328,2.0,3.0,-999,-99.99,,,-99.99,,2013-02-15 10:52:00,
2013-02-15 03:01:00,53.0,-99.9,30.12,NNW,328,2.0,3.0,-999,-99.99,,,-99.99,,2013-02-15 11:01:00,
2013-02-15 03:11:00,53.0,-99.9,30.12,NNW,328,2.0,3.0,-999,-99.99,,,-99.99,,2013-02-15 11:11:00,
2013-02-15 03:23:00,53.0,-99.9,30.12,NNW,328,2.0,3.0,-999,-99.99,,,-99.99,,2013-02-15 11:23:00,
2013-02-15 03:52:00,53.0,-99.9,30.14,NW,315,1.0,4.0,-999,-99.99,,,-99.99,,2013-02-15 11:52:00,
2013-02-15 04:02:00,52.0,-99.9,30.12,WNW,283,0.0,4.0,-999,-99.99,,,-99.99,,2013-02-15 12:02:00,
2013-02-15 04:11:00,52.0,-99.9,30.12,WNW,283,0.0,4.0,-999,-99.99,,,-99.99,,2013-02-15 12:11:00,
2013-02-15 04:22:00,51.0,-99.9,30.11,NW,319,2.0,5.0,-999,-99.99,,,-99.99,,2013-02-15 12:22:00,
2013-02-15 04:32:00,51.0,-99.9,30.11,NW,306,1.0,5.0,-999,-99.99,,,-99.99,,2013-02-15 12:32:00,
2013-02-15 04:42:00,51.0,-99.9,30.11,NW,306,1.0,5.0,-999,-99.99,,,-99.99,,2013-02-15 12:42:00,
2013-02-15 04:53:00,51.0,-99.9,30.12,WNW,284,0.0,3.0,-999,-99.99,,,-99.99,,2013-02-15 12:53:00,
2013-02-15 05:02:00,50.0,-99.9,30.14,North,353,1.0,3.0,-999,-99.99,,,-99.99,,2013-02-15 13:02:00,
2013-02-15 05:11:00,50.0,-99.9,30.13,North,9,1.0,3.0,-999,-99.99,,,-99.99,,2013-02-15 13:11:00,
2013-02-15 05:22:00,50.0,-99.9,30.13,North,9,1.0,3.0,-999,-99.99,,,-99.99,,2013-02-15 13:22:00,
2013-02-15 05:32:00,50.0,-99.9,30.13,NE,53,3.0,8.0,-999,-99.99,,,-99.99,,2013-02-15 13:32:00,
2013-02-15 05:40:00,52.0,-99.9,30.14,ENE,69,4.0,8.0,-999,-99.99,,,-99.99,,2013-02-15 13:40:00,
2013-02-15 05:42:00,50.0,-99.9,30.13,NE,53,3.0,8.0,-999,-99.99,,,-99.99,,2013-02-15 13:42:00,
2013-02-15 05:52:00,51.0,-99.9,30.14,ENE,59,4.0,8.0,-999,-99.99,,,-99.99,,2013-02-15 13:52:00,
2013-02-15 06:01:00,52.0,-99.9,30.14,ENE,69,4.0,8.0,-999,-99.99,,,-99.99,,2013-02-15 14:01:00,
2013-02-15 06:12:00,52.0,-99.9,30.14,ENE,69,4.0,8.0,-999,-99.99,,,-99.99,,2013-02-15 14:12:00,
2013-02-15 06:22:00,52.0,-99.9,30.14,ENE,69,4.0,8.0,-999,-99.99,,,-99.99,,2013-02-15 14:22:00,
2013-02-15 06:32:00,52.0,-99.9,30.14,ENE,69,4.0,8.0,-999,-99.99,,,-99.99,,2013-02-15 14:32:00,
2013-02-15 08:02:00,51.0,-99.9,30.16,NW,318,1.0,13.0,-999,-99.99,,,-99.99,,2013-02-15 16:02:00,
2013-02-15 08:12:00,51.0,-99.9,30.16,NW,318,1.0,13.0,-999,-99.99,,,-99.99,,2013-02-15 16:12:00,
2013-02-15 08:22:00,51.0,-99.9,30.16,WNW,292,0.0,1.0,-999,-99.99,,,-99.99,,2013-02-15 16:22:00,
2013-02-15 08:32:00,52.0,-99.9,30.19,NW,320,1.0,3.0,-999,-99.99,,,-99.99,,2013-02-15 16:32:00,
2013-02-15 08:43:00,52.0,-99.9,30.19,NW,320,1.0,3.0,-999,-99.99,,,-99.99,,2013-02-15 16:43:00,
2013-02-15 08:52:00,53.0,-99.9,30.18,NW,322,1.0,3.0,-999,-99.99,,,-99.99,,2013-02-15 16:52:00,
2013-02-15 09:01:00,55.0,-99.9,30.18,NNW,333,1.0,2.0,-999,-99.99,,,-99.99,,2013-02-15 17:01:00,
2013-02-15 09:11:00,56.0,-99.9,30.18,NW,318,2.0,3.0,-999,-99.99,,,-99.99,,2013-02-15 17:11:00,
2013-02-15 09:21:00,56.0,-99.9,30.18,NW,318,2.0,3.0,-999,-99.99,,,-99.99,,2013-02-15 17:21:00,
2013-02-15 09:32:00,58.0,-99.9,30.18,NNW,328,3.0,6.0,-999,-99.99,,,-99.99,,2013-02-15 17:32:00,
2013-02-15 09:42:00,58.0,-99.9,30.18,NNW,328,3.0,6.0,-999,-99.99,,,-99.99,,2013-02-15 17:42:00,
2013-02-15 09:52:00,58.0,-99.9,30.18,NNW,328,3.0,6.0,-999,-99.99,,,-99.99,,2013-02-15 17:52:00,
2013-02-15 10:02:00,60.0,-99.9,30.18,NNW,340,2.0,5.0,-999,-99.99,,,-99.99,,2013-02-15 18:02:00,
2013-02-15 10:22:00,62.0,-99.9,30.17,NNW,332,2.0,3.0,-999,-99.99,,,-99.99,,2013-02-15 18:22:00,
2013-02-15 10:32:00,64.0,-99.9,30.16,NW,321,4.0,9.0,-999,-99.99,,,-99.99,,2013-02-15 18:32:00,
2013-02-15 10:42:00,64.0,-99.9,30.16,NW,321,4.0,9.0,-999,-99.99,,,-99.99,,2013-02-15 18:42:00,
2013-02-15 10:53:00,65.0,-99.9,30.17,NW,315,4.0,10.0,-999,-99.99,,,-99.99,,2013-02-15 18:53:00,
2013-02-15 11:02:00,66.0,-99.9,30.16,NNW,333,3.0,7.0,-999,-99.99,,,-99.99,,2013-02-15 19:02:00,
2013-02-15 11:22:00,67.0,-99.9,30.16,North,5,2.0,7.0,-999,-99.99,,,-99.99,,2013-02-15 19:22:00,
2013-02-15 11:32:00,68.0,-99.9,30.16,NW,312,5.0,8.0,-999,-99.99,,,-99.99,,2013-02-15 19:32:00,
2013-02-15 11:42:00,68.0,-99.9,30.16,NW,312,5.0,8.0,-999,-99.99,,,-99.99,,2013-02-15 19:42:00,
2013-02-15 11:52:00,69.0,-99.9,30.16,NW,321,3.0,8.0,-999,-99.99,,,-99.99,,2013-02-15 19:52:00,
2013-02-15 12:02:00,69.0,-99.9,30.16,NE,34,3.0,7.0,-999,-99.99,,,-99.99,,2013-02-15 20:02:00,
2013-02-15 12:22:00,71.0,-99.9,30.15,North,7,4.0,8.0,-999,-99.99,,,-99.99,,2013-02-15 20:22:00,
2013-02-15 12:32:00,71.0,-99.9,30.16,NW,308,2.0,6.0,-999,-99.99,,,-99.99,,2013-02-15 20:32:00,
2013-02-15 12:42:00,71.0,-99.9,30.16,NW,308,2.0,6.0,-999,-99.99,,,-99.99,,2013-02-15 20:42:00,
2013-02-15 12:53:00,72.0,-99.9,30.16,NNE,22,4.0,6.0,-999,-99.99,,,-99.99,,2013-02-15 20:53:00,
2013-02-15 13:02:00,73.0,-99.9,30.15,East,90,9.0,13.0,-999,-99.99,,,-99.99,,2013-02-15 21:02:00,
2013-02-15 13:22:00,73.0,-99.9,30.12,East,86,7.0,17.0,-999,-99.99,,,-99.99,,2013-02-15 21:22:00,
2013-02-15 13:32:00,74.0,-99.9,30.15,East,83,8.0,19.0,-999,-99.99,,,-99.99,,2013-02-15 21:32:00,
2013-02-15 13:42:00,74.0,-99.9,30.15,East,83,8.0,19.0,-999,-99.99,,,-99.99,,2013-02-15 21:42:00,
2013-02-15 13:52:00,74.0,-99.9,30.14,East,85,10.0,17.0,-999,-99.99,,,-99.99,,2013-02-15 21:52:00,
2013-02-15 14:02:00,74.0,-99.9,30.13,ENE,76,6.0,18.0,-999,-99.99,,,-99.99,,2013-02-15 22:02:00,
2013-02-15 14:11:00,74.0,-99.9,30.13,ENE,77,6.0,11.0,-999,-99.99,,,-99.99,,2013-02-15 22:11:00,
2013-02-15 14:22:00,74.0,-99.9,30.13,ENE,77,6.0,11.0,-999,-99.99,,,-99.99,,2013-02-15 22:22:00,
2013-02-15 14:32:00,75.0,-99.9,30.13,East,89,7.0,13.0,-999,-99.99,,,-99.99,,2013-02-15 22:32:00,
2013-02-15 14:42:00,75.0,-99.9,30.13,East,89,7.0,13.0,-999,-99.99,,,-99.99,,2013-02-15 22:42:00,
2013-02-15 14:52:00,75.0,-99.9,30.13,East,80,8.0,19.0,-999,-99.99,,,-99.99,,2013-02-15 22:52:00,
2013-02-15 15:02:00,76.0,-99.9,30.13,ESE,106,8.0,18.0,-999,-99.99,,,-99.99,,2013-02-15 23:02:00,
2013-02-15 15:11:00,76.0,-99.9,30.13,ESE,106,8.0,18.0,-999,-99.99,,,-99.99,,2013-02-15 23:11:00,
2013-02-15 15:21:00,76.0,-99.9,30.14,East,87,8.0,18.0,-999,-99.99,,,-99.99,,2013-02-15 23:21:00,
2013-02-15 15:32:00,76.0,-99.9,30.14,East,95,5.0,12.0,-999,-99.99,,,-99.99,,2013-02-15 23:32:00,
2013-02-15 15:42:00,76.0,-99.9,30.14,East,95,5.0,12.0,-999,-99.99,,,-99.99,,2013-02-15 23:42:00,
2013-02-15 15:52:00,76.0,-99.9,30.15,East,93,5.0,14.0,-999,-99.99,,,-99.99,,2013-02-15 23:52:00,
2013-02-15 16:02:00,76.0,-99.9,30.14,East,88,8.0,13.0,-999,-99.99,,,-99.99,,2013-02-16 00:02:00,
2013-02-15 16:11:00,76.0,-99.9,30.14,East,88,8.0,13.0,-999,-99.99,,,-99.99,,2013-02-16 00:11:00,
2013-02-15 16:22:00,76.0,-99.9,30.14,ENE,78,8.0,16.0,-999,-99.99,,,-99.99,,2013-02-16 00:22:00,
2013-02-15 16:32:00,76.0,-99.9,30.15,East,79,6.0,12.0,-999,-99.99,,,-99.99,,2013-02-16 00:32:00,
2013-02-15 16:42:00,76.0,-99.9,30.15,East,79,6.0,12.0,-999,-99.99,,,-99.99,,2013-02-16 00:42:00,
2013-02-15 16:52:00,76.0,-99.9,30.16,ENE,76,5.0,10.0,-999,-99.99,,,-99.99,,2013-02-16 00:52:00,
2013-02-15 17:02:00,75.0,-99.9,30.17,ENE,73,7.0,12.0,-999,-99.99,,,-99.99,,2013-02-16 01:02:00,
2013-02-15 17:11:00,75.0,-99.9,30.17,ENE,73,7.0,12.0,-999,-99.99,,,-99.99,,2013-02-16 01:11:00,
2013-02-15 17:21:00,75.0,-99.9,30.15,ENE,58,4.0,7.0,-999,-99.99,,,-99.99,,2013-02-16 01:21:00,
2013-02-15 17:32:00,75.0,-99.9,30.16,ENE,68,3.0,8.0,-999,-99.99,,,-99.99,,2013-02-16 01:32:00,
2013-02-15 17:42:00,75.0,-99.9,30.16,ENE,68,3.0,8.0,-999,-99.99,,,-99.99,,2013-02-16 01:42:00,
2013-02-15 17:52:00,74.0,-99.9,30.17,ENE,73,4.0,6.0,-999,-99.99,,,-99.99,,2013-02-16 01:52:00,
2013-02-15 18:01:00,74.0,-99.9,30.19,NW,312,1.0,3.0,-999,-99.99,,,-99.99,,2013-02-16 02:01:00,
2013-02-15 18:11:00,73.0,-99.9,30.18,NW,326,1.0,3.0,-999,-99.99,,,-99.99,,2013-02-16 02:11:00,
2013-02-15 18:22:00,73.0,-99.9,30.18,NW,326,1.0,3.0,-999,-99.99,,,-99.99,,2013-02-16 02:22:00,
2013-02-15 18:32:00,73.0,-99.9,30.18,NW,326,1.0,3.0,-999,-99.99,,,-99.99,,2013-02-16 02:32:00,
2013-02-15 18:42:00,73.0,-99.9,30.18,NW,326,1.0,3.0,-999,-99.99,,,-99.99,,2013-02-16 02:42:00,
2013-02-15 18:52:00,71.0,-99.9,30.19,West,260,1.0,3.0,-999,-99.99,,,-99.99,,2013-02-16 02:52:00,
2013-02-15 19:02:00,71.0,-99.9,30.19,East,90,0.0,2.0,-999,-99.99,,,-99.99,,2013-02-16 03:02:00,
2013-02-15 19:11:00,70.0,-99.9,30.19,NE,44,0.0,1.0,-999,-99.99,,,-99.99,,2013-02-16 03:11:00,
2013-02-15 19:22:00,70.0,-99.9,30.19,NE,44,0.0,1.0,-999,-99.99,,,-99.99,,2013-02-16 03:22:00,
2013-02-15 19:32:00,70.0,-99.9,30.20,ENE,68,0.0,1.0,-999,-99.99,,,-99.99,,2013-02-16 03:32:00,
2013-02-15 19:42:00,70.0,-99.9,30.20,ENE,68,0.0,1.0,-999,-99.99,,,-99.99,,2013-02-16 03:42:00,
2013-02-15 19:52:00,69.0,-99.9,30.19,East,97,1.0,2.0,-999,-99.99,,,-99.99,,2013-02-16 03:52:00,
2013-02-15 20:01:00,68.0,-99.9,30.19,NNW,333,1.0,2.0,-999,-99.99,,,-99.99,,2013-02-16 04:01:00,
2013-02-15 20:11:00,68.0,-99.9,30.20,North,358,2.0,3.0,-999,-99.99,,,-99.99,,2013-02-16 04:11:00,
2013-02-15 20:21:00,68.0,-99.9,30.20,North,358,2.0,3.0,-999,-99.99,,,-99.99,,2013-02-16 04:21:00,
2013-02-15 20:32:00,67.0,-99.9,30.20,North,356,1.0,2.0,-999,-99.99,,,-99.99,,2013-02-16 04:32:00,
2013-02-15 20:42:00,67.0,-99.9,30.20,North,356,1.0,2.0,-999,-99.99,,,-99.99,,2013-02-16 04:42:00,
2013-02-15 20:52:00,67.0,-99.9,30.19,SSW,210,1.0,1.0,-999,-99.99,,,-99.99,,2013-02-16 04:52:00,
2013-02-15 21:02:00,66.0,-99.9,30.19,NNW,338,0.0,1.0,-999,-99.99,,,-99.99,,2013-02-16 05:02:00,
2013-02-15 21:12:00,66.0,-99.9,30.19,NNW,338,0.0,1.0,-999,-99.99,,,-99.99,,2013-02-16 05:12:00,
2013-02-15 21:22:00,66.0,-99.9,30.20,North,360,0.0,0.0,-999,-99.99,,,-99.99,,2013-02-16 05:22:00,
2013-02-15 21:32:00,65.0,-99.9,30.21,NNE,12,1.0,2.0,-999,-99.99,,,-99.99,,2013-02-16 05:32:00,
2013-02-15 21:42:00,65.0,-99.9,30.21,NNE,12,1.0,2.0,-999,-99.99,,,-99.99,,2013-02-16 05:42:00,
2013-02-15 21:52:00,65.0,-99.9,30.20,NE,45,0.0,2.0,-999,-99.99,,,-99.99,,2013-02-16 05:52:00,
2013-02-15 22:02:00,64.0,-99.9,30.19,NNE,16,2.0,3.0,-999,-99.99,,,-99.99,,2013-02-16 06:02:00,
2013-02-15 22:11:00,64.0,-99.9,30.19,NNE,16,2.0,3.0,-999,-99.99,,,-99.99,,2013-02-16 06:11:00,
2013-02-15 22:22:00,64.0,-99.9,30.19,NNE,15,2.0,3.0,-999,-99.99,,,-99.99,,2013-02-16 06:22:00,
2013-02-15 22:32:00,64.0,-99.9,30.20,North,11,1.0,2.0,-999,-99.99,,,-99.99,,2013-02-16 06:32:00,
2013-02-15 22:42:00,64.0,-99.9,30.20,North,11,1.0,2.0,-999,-99.99,,,-99.99,,2013-02-16 06:42:00,
2013-02-15 22:52:00,63.0,-99.9,30.19,NE,37,2.0,3.0,-999,-99.99,,,-99.99,,2013-02-16 06:52:00,
2013-02-15 23:02:00,62.0,-99.9,30.17,ENE,60,3.0,6.0,-999,-99.99,,,-99.99,,2013-02-16 07:02:00,
2013-02-15 23:11:00,62.0,-99.9,30.17,ENE,60,3.0,6.0,-999,-99.99,,,-99.99,,2013-02-16 07:11:00,
2013-02-15 23:22:00,62.0,-99.9,30.19,NNE,19,2.0,4.0,-999,-99.99,,,-99.99,,2013-02-16 07:22:00,
2013-02-15 23:32:00,62.0,-99.9,30.20,NNE,23,0.0,4.0,-999,-99.99,,,-99.99,,2013-02-16 07:32:00,
2013-02-15 23:42:00,62.0,-99.9,30.20,NNE,23,0.0,4.0,-999,-99.99,,,-99.99,,2013-02-16 07:42:00,
2013-02-15 23:53:00,62.0,-99.9,30.17,NNW,340,1.0,2.0,-999,-99.99,,,-99.99,,2013-02-16 07:53:00,